Delaware, OH

6:37 PM EST on November 20, 2017 (GMT -0500)
Delaware Municipal

Weather History for KDLZ - September, 2012

Change the Weather History Date:

Sunday, September 30, 2012

  Actual Average Record
Temperature  
Mean Temperature 52 °F -  
Max Temperature 68 °F 71 °F 92 °F (1953)
Min Temperature 37 °F 44 °F 30 °F (1963)
Degree Days  
Heating Degree Days 12    
Growing Degree Days 2 (Base 50)    
Moisture  
Dew Point 42 °F    
Average Humidity 69    
Maximum Humidity 100    
Minimum Humidity 33    
Precipitation  
Precipitation 0.00 in - - ()
Sea Level Pressure  
Sea Level Pressure 29.90 in    
Wind  
Wind Speed 3 mph (North)    
Max Wind Speed 15 mph    
Max Gust Speed 18 mph    
Visibility 10 miles    
Events      
Averages and records for this station are not official NWS values.
T = Trace of Precipitation, MM = Missing Value Source: NWS Daily Summary

Daily Weather History Graph

Daily Weather History Graph

Search for Another Location

Airport or City:

Trip Planner

Search our weather history database for the weather conditions in past years. The results will help you decide how hot, cold, wet, or windy it might be!

Date:

Astronomy

Sep. 30, 2012 Rise Set
Actual Time 7:28 AM EDT 7:15 PM EDT
Civil Twilight 7:01 AM EDT 7:42 PM EDT
Nautical Twilight 6:29 AM EDT 8:14 PM EDT
Astronomical Twilight 5:57 AM EDT 8:45 PM EDT
Moon 7:18 PM EDT (9/30) 7:58 AM EDT (9/30)
Length of Visible Light 12h 41m
Length of Day
11h 47m
Full, 100% of the Moon is Illuminated
Sep 30
Full
Oct 8
Last Quarter
Oct 15
New
Oct 21
First Quarter
Oct 29
Full

Hourly Weather History & Observations

Time (EDT) Temp. Dew Point Humidity Pressure Visibility Wind Dir Wind Speed Gust Speed Precip Events Conditions
12:15 AM 44.6 °F 41.0 °F 87% 29.94 in 10.0 mi Calm Calm - N/A   Clear
12:35 AM 42.8 °F 42.8 °F 100% 29.94 in 10.0 mi Calm Calm - N/A   Clear
12:54 AM 44.6 °F 42.8 °F 93% 29.93 in 10.0 mi Calm Calm - N/A   Clear
1:15 AM 44.6 °F 41.0 °F 87% 29.93 in 10.0 mi Calm Calm - N/A   Clear
1:34 AM 44.6 °F 41.0 °F 87% 29.92 in 10.0 mi Calm Calm - N/A   Clear
1:55 AM 44.6 °F 41.0 °F 87% 29.92 in 10.0 mi Calm Calm - N/A   Clear
2:15 AM 44.6 °F 41.0 °F 87% 29.92 in 10.0 mi Calm Calm - N/A   Clear
2:35 AM 44.6 °F 41.0 °F 87% 29.92 in 10.0 mi Calm Calm - N/A   Clear
2:55 AM 42.8 °F 41.0 °F 93% 29.92 in 10.0 mi Calm Calm - N/A   Clear
3:15 AM 44.6 °F 41.0 °F 87% 29.91 in 10.0 mi Calm Calm - N/A   Clear
3:34 AM 44.6 °F 41.0 °F 87% 29.91 in 10.0 mi Calm Calm - N/A   Clear
3:55 AM 42.8 °F 41.0 °F 93% 29.90 in 10.0 mi Calm Calm - N/A   Clear
4:15 AM 42.8 °F 39.2 °F 87% 29.89 in 10.0 mi Calm Calm - N/A   Clear
4:34 AM 41.0 °F 39.2 °F 93% 29.89 in 10.0 mi Calm Calm - N/A   Clear
4:55 AM 42.8 °F 39.2 °F 87% 29.88 in 10.0 mi Calm Calm - N/A   Clear
5:15 AM 41.0 °F 37.4 °F 87% 29.87 in 10.0 mi Calm Calm - N/A   Clear
5:34 AM 41.0 °F 37.4 °F 87% 29.87 in 10.0 mi Calm Calm - N/A   Clear
6:15 AM 41.0 °F 37.4 °F 87% 29.87 in 10.0 mi Calm Calm - N/A   Clear
6:34 AM 41.0 °F 37.4 °F 87% 29.87 in 10.0 mi Calm Calm - N/A   Clear
6:55 AM 37.4 °F 35.6 °F 93% 29.87 in 10.0 mi Calm Calm - N/A   Clear
7:15 AM 37.4 °F 35.6 °F 93% 29.87 in 10.0 mi Calm Calm - N/A   Clear
7:34 AM 39.2 °F 37.4 °F 93% 29.87 in 10.0 mi Calm Calm - N/A   Clear
7:55 AM 37.4 °F 37.4 °F 100% 29.88 in 7.0 mi Calm Calm - N/A   Clear
8:15 AM 41.0 °F 41.0 °F 100% 29.88 in 10.0 mi Calm Calm - N/A   Clear
8:35 AM 44.6 °F 42.8 °F 93% 29.88 in 7.0 mi Calm Calm - N/A   Clear
8:55 AM 46.4 °F 44.6 °F 93% 29.89 in 10.0 mi Calm Calm - N/A   Clear
9:15 AM 50.0 °F 44.6 °F 82% 29.88 in 10.0 mi NNW 5.8 mph - N/A   Clear
9:35 AM 51.8 °F 44.6 °F 76% 29.88 in 10.0 mi NNW 5.8 mph - N/A   Clear
9:55 AM 53.6 °F 46.4 °F 77% 29.88 in 10.0 mi NNW 4.6 mph - N/A   Clear
10:15 AM 55.4 °F 48.2 °F 77% 29.89 in 10.0 mi North 8.1 mph - N/A   Clear
10:35 AM 55.4 °F 48.2 °F 77% 29.90 in 10.0 mi North 5.8 mph - N/A   Clear
10:55 AM 59.0 °F 50.0 °F 72% 29.89 in 10.0 mi North 6.9 mph - N/A   Clear
11:14 AM 60.8 °F 50.0 °F 68% 29.89 in 10.0 mi North 5.8 mph - N/A   Scattered Clouds
11:35 AM 62.6 °F 50.0 °F 63% 29.90 in 10.0 mi North 10.4 mph - N/A   Scattered Clouds
11:55 AM 64.4 °F 46.4 °F 52% 29.89 in 10.0 mi North 8.1 mph - N/A   Clear
12:14 PM 64.4 °F 46.4 °F 52% 29.90 in 10.0 mi NNW 8.1 mph - N/A   Scattered Clouds
12:35 PM 64.4 °F 46.4 °F 52% 29.90 in 10.0 mi North 11.5 mph - N/A   Scattered Clouds
12:55 PM 64.4 °F 46.4 °F 52% 29.90 in 10.0 mi North 15.0 mph - N/A   Scattered Clouds
1:14 PM 66.2 °F 41.0 °F 40% 29.90 in 10.0 mi North 11.5 mph - N/A   Scattered Clouds
1:35 PM 64.4 °F 42.8 °F 45% 29.90 in 10.0 mi North 10.4 mph 18.4 mph N/A   Scattered Clouds
1:55 PM 66.2 °F 41.0 °F 40% 29.90 in 10.0 mi NE 8.1 mph 17.3 mph N/A   Scattered Clouds
2:14 PM 66.2 °F 41.0 °F 40% 29.89 in 10.0 mi NNE 3.5 mph - N/A   Scattered Clouds
2:35 PM 66.2 °F 41.0 °F 40% 29.88 in 10.0 mi NNW 9.2 mph - N/A   Scattered Clouds
2:55 PM 68.0 °F 37.4 °F 33% 29.89 in 10.0 mi NW 5.8 mph - N/A   Scattered Clouds
3:14 PM 66.2 °F 41.0 °F 40% 29.88 in 10.0 mi NNW 10.4 mph - N/A   Clear
3:35 PM 68.0 °F 37.4 °F 33% 29.88 in 10.0 mi NW 4.6 mph - N/A   Clear
3:55 PM 68.0 °F 39.2 °F 35% 29.87 in 10.0 mi North 3.5 mph - N/A   Clear
4:15 PM 68.0 °F 41.0 °F 37% 29.87 in 10.0 mi NNE 10.4 mph - N/A   Mostly Cloudy
4:35 PM 68.0 °F 41.0 °F 37% 29.87 in 10.0 mi NNE 10.4 mph - N/A   Mostly Cloudy
4:55 PM 66.2 °F 39.2 °F 37% 29.87 in 10.0 mi NNE 11.5 mph - N/A   Scattered Clouds
5:15 PM 66.2 °F 39.2 °F 37% 29.87 in 10.0 mi NNE 9.2 mph - N/A   Clear
5:35 PM 64.4 °F 37.4 °F 37% 29.88 in 10.0 mi North 9.2 mph - N/A   Clear
5:55 PM 64.4 °F 37.4 °F 37% 29.88 in 10.0 mi NNE 8.1 mph - N/A   Clear
6:15 PM 62.6 °F 39.2 °F 42% 29.88 in 10.0 mi North 5.8 mph - N/A   Clear
6:35 PM 62.6 °F 39.2 °F 42% 29.89 in 10.0 mi North 6.9 mph - N/A   Clear
6:54 PM 60.8 °F 37.4 °F 42% 29.89 in 10.0 mi North 4.6 mph - N/A   Clear
7:15 PM 59.0 °F 41.0 °F 51% 29.90 in 10.0 mi North 4.6 mph - N/A   Clear
7:35 PM 55.4 °F 41.0 °F 58% 29.92 in 10.0 mi North 4.6 mph - N/A   Clear
7:55 PM 55.4 °F 41.0 °F 58% 29.92 in 10.0 mi North 5.8 mph - N/A   Clear
8:15 PM 53.6 °F 42.8 °F 67% 29.92 in 10.0 mi North 5.8 mph - N/A   Clear
8:35 PM 53.6 °F 42.8 °F 67% 29.92 in 10.0 mi North 5.8 mph - N/A   Clear
8:54 PM 53.6 °F 42.8 °F 67% 29.93 in 10.0 mi North 5.8 mph - N/A   Clear
9:15 PM 53.6 °F 42.8 °F 67% 29.94 in 10.0 mi NNE 6.9 mph - N/A   Clear
9:35 PM 51.8 °F 42.8 °F 71% 29.94 in 10.0 mi NNE 5.8 mph - N/A   Clear
9:54 PM 51.8 °F 42.8 °F 71% 29.95 in 10.0 mi NNE 6.9 mph - N/A   Clear
10:15 PM 51.8 °F 42.8 °F 71% 29.95 in 10.0 mi NNE 5.8 mph - N/A   Clear
10:35 PM 51.8 °F 42.8 °F 71% 29.95 in 10.0 mi NNE 6.9 mph - N/A   Clear
11:15 PM 48.2 °F 42.8 °F 82% 29.95 in 10.0 mi NE 3.5 mph - N/A   Clear
11:35 PM 46.4 °F 42.8 °F 87% 29.95 in 10.0 mi Calm Calm - N/A   Clear